Time,TemperatureF,DewpointF,PressureIn,WindDirection,WindDirectionDegrees,WindSpeedMPH,WindSpeedGustMPH,Humidity,HourlyPrecipIn,Conditions,Clouds,dailyrainin,SolarRadiationWatts/m^2,SoftwareType,DateUTC
2013-05-30 00:03:00,77.6,73.0,30.02,ESE,107,16.0,-999.0,86,-99.99,,,0.00,0,weatherlink.com 1.10,2013-05-30 04:03:00,
2013-05-30 00:18:00,77.5,73.0,30.01,ESE,105,23.0,-999.0,87,-99.99,,,0.00,0,weatherlink.com 1.10,2013-05-30 04:18:00,
2013-05-30 00:33:00,77.3,73.0,30.01,East,84,22.0,-999.0,87,-99.99,,,0.00,0,weatherlink.com 1.10,2013-05-30 04:33:00,
2013-05-30 00:48:00,77.4,73.0,30.01,ESE,107,23.0,-999.0,85,-99.99,,,0.00,0,weatherlink.com 1.10,2013-05-30 04:48:00,
2013-05-30 01:03:00,77.6,73.0,30.01,ESE,108,20.0,-999.0,86,-99.99,,,0.00,0,weatherlink.com 1.10,2013-05-30 05:03:00,
2013-05-30 01:18:00,77.9,74.0,30.00,East,86,13.0,-999.0,86,-99.99,,,0.00,0,weatherlink.com 1.10,2013-05-30 05:18:00,
2013-05-30 01:33:00,77.5,73.0,30.00,East,98,15.0,-999.0,87,-99.99,,,0.00,0,weatherlink.com 1.10,2013-05-30 05:33:00,
2013-05-30 01:48:00,77.8,73.0,29.99,East,97,19.0,-999.0,86,-99.99,,,0.00,0,weatherlink.com 1.10,2013-05-30 05:48:00,
2013-05-30 02:03:00,78.0,74.0,29.99,East,96,15.0,-999.0,86,-99.99,,,0.00,0,weatherlink.com 1.10,2013-05-30 06:03:00,
2013-05-30 02:18:00,78.0,73.0,29.99,East,95,16.0,-999.0,85,-99.99,,,0.00,0,weatherlink.com 1.10,2013-05-30 06:18:00,
2013-05-30 02:33:00,78.0,74.0,29.98,ESE,108,14.0,-999.0,86,-99.99,,,0.00,0,weatherlink.com 1.10,2013-05-30 06:33:00,
2013-05-30 02:48:00,78.1,74.0,29.98,ESE,103,15.0,-999.0,86,-99.99,,,0.00,0,weatherlink.com 1.10,2013-05-30 06:48:00,
2013-05-30 03:03:00,78.0,74.0,29.97,East,83,15.0,-999.0,86,-99.99,,,0.00,0,weatherlink.com 1.10,2013-05-30 07:03:00,
2013-05-30 03:18:00,78.0,74.0,29.97,ESE,106,25.0,-999.0,87,-99.99,,,0.00,0,weatherlink.com 1.10,2013-05-30 07:18:00,
2013-05-30 03:33:00,75.4,72.0,29.98,East,101,11.0,-999.0,90,-99.99,,,0.03,0,weatherlink.com 1.10,2013-05-30 07:33:00,
2013-05-30 03:48:00,74.1,71.0,29.97,ESE,123,18.0,-999.0,91,-99.99,,,0.04,0,weatherlink.com 1.10,2013-05-30 07:48:00,
2013-05-30 04:03:00,75.2,73.0,29.97,ESE,119,9.0,-999.0,92,-99.99,,,0.04,0,weatherlink.com 1.10,2013-05-30 08:03:00,
2013-05-30 04:19:00,75.9,73.0,29.97,ESE,104,18.0,-999.0,91,-99.99,,,0.04,0,weatherlink.com 1.10,2013-05-30 08:19:00,
2013-05-30 04:34:00,75.7,73.0,29.97,ESE,106,15.0,-999.0,92,-99.99,,,0.04,0,weatherlink.com 1.10,2013-05-30 08:34:00,
2013-05-30 04:49:00,75.5,73.0,29.96,ESE,103,13.0,-999.0,91,-99.99,,,0.04,0,weatherlink.com 1.10,2013-05-30 08:49:00,
2013-05-30 05:04:00,76.0,73.0,29.97,ESE,106,13.0,-999.0,90,-99.99,,,0.04,0,weatherlink.com 1.10,2013-05-30 09:04:00,
2013-05-30 05:19:00,76.6,73.0,29.97,SE,127,13.0,-999.0,89,-99.99,,,0.04,0,weatherlink.com 1.10,2013-05-30 09:19:00,
2013-05-30 05:34:00,76.7,72.0,29.98,SE,144,4.0,-999.0,86,-99.99,,,0.04,0,weatherlink.com 1.10,2013-05-30 09:34:00,
2013-05-30 05:49:00,75.0,72.0,29.98,SSE,157,6.0,-999.0,90,-99.99,,,0.05,0,weatherlink.com 1.10,2013-05-30 09:49:00,
2013-05-30 06:04:00,74.2,72.0,29.99,SSE,148,8.0,-999.0,92,-99.99,,,0.16,0,weatherlink.com 1.10,2013-05-30 10:04:00,
2013-05-30 06:19:00,73.7,72.0,29.99,SSE,148,5.0,-999.0,93,-99.99,,,0.36,0,weatherlink.com 1.10,2013-05-30 10:19:00,
2013-05-30 06:34:00,73.8,72.0,30.00,SE,130,8.0,-999.0,94,-99.99,,,0.48,0,weatherlink.com 1.10,2013-05-30 10:34:00,
2013-05-30 06:49:00,74.0,72.0,29.99,SSE,151,7.0,-999.0,94,-99.99,,,0.75,16,weatherlink.com 1.10,2013-05-30 10:49:00,
2013-05-30 07:04:00,73.6,72.0,29.99,SSE,150,5.0,-999.0,94,-99.99,,,0.77,32,weatherlink.com 1.10,2013-05-30 11:04:00,
2013-05-30 07:19:00,74.2,73.0,29.99,SE,142,5.0,-999.0,95,-99.99,,,0.77,53,weatherlink.com 1.10,2013-05-30 11:19:00,
2013-05-30 07:34:00,73.8,72.0,30.00,SE,129,0.0,-999.0,95,-99.99,,,0.77,33,weatherlink.com 1.10,2013-05-30 11:34:00,
2013-05-30 07:49:00,73.6,72.0,30.01,SE,143,4.0,-999.0,95,-99.99,,,0.77,40,weatherlink.com 1.10,2013-05-30 11:49:00,
2013-05-30 08:04:00,74.6,73.0,30.01,SE,143,0.0,-999.0,95,-99.99,,,0.77,39,weatherlink.com 1.10,2013-05-30 12:04:00,
2013-05-30 08:19:00,75.0,74.0,30.01,SE,143,0.0,-999.0,96,-99.99,,,0.77,65,weatherlink.com 1.10,2013-05-30 12:19:00,
2013-05-30 08:34:00,75.4,74.0,30.02,SE,143,0.0,-999.0,95,-99.99,,,0.77,67,weatherlink.com 1.10,2013-05-30 12:34:00,
2013-05-30 08:49:00,74.4,73.0,30.04,SSE,150,0.0,-999.0,95,-99.99,,,0.85,54,weatherlink.com 1.10,2013-05-30 12:49:00,
2013-05-30 09:04:00,74.0,73.0,30.03,SSE,150,0.0,-999.0,95,-99.99,,,0.93,54,weatherlink.com 1.10,2013-05-30 13:04:00,
2013-05-30 09:19:00,74.5,73.0,30.03,SE,145,5.0,-999.0,95,-99.99,,,1.01,58,weatherlink.com 1.10,2013-05-30 13:19:00,
2013-05-30 09:34:00,74.5,73.0,30.03,SE,140,1.0,-999.0,95,-99.99,,,1.03,54,weatherlink.com 1.10,2013-05-30 13:34:00,
2013-05-30 09:49:00,74.7,73.0,30.03,SE,140,2.0,-999.0,95,-99.99,,,1.04,54,weatherlink.com 1.10,2013-05-30 13:49:00,
2013-05-30 10:04:00,74.6,73.0,30.03,ESE,115,5.0,-999.0,95,-99.99,,,1.05,116,weatherlink.com 1.10,2013-05-30 14:04:00,
2013-05-30 10:19:00,74.2,73.0,30.03,SE,127,7.0,-999.0,95,-99.99,,,1.05,146,weatherlink.com 1.10,2013-05-30 14:19:00,
2013-05-30 10:34:00,74.7,73.0,30.04,ESE,103,9.0,-999.0,95,-99.99,,,1.05,199,weatherlink.com 1.10,2013-05-30 14:34:00,
2013-05-30 10:49:00,74.6,73.0,30.04,ESE,103,7.0,-999.0,95,-99.99,,,1.05,167,weatherlink.com 1.10,2013-05-30 14:49:00,
2013-05-30 11:04:00,74.9,73.0,30.04,ESE,107,5.0,-999.0,94,-99.99,,,1.05,178,weatherlink.com 1.10,2013-05-30 15:04:00,
2013-05-30 11:19:00,75.1,74.0,30.03,ESE,105,6.0,-999.0,95,-99.99,,,1.05,151,weatherlink.com 1.10,2013-05-30 15:19:00,
2013-05-30 11:34:00,75.4,74.0,30.04,East,96,6.0,-999.0,94,-99.99,,,1.05,151,weatherlink.com 1.10,2013-05-30 15:34:00,
2013-05-30 11:49:00,75.3,74.0,30.04,ESE,105,7.0,-999.0,94,-99.99,,,1.05,258,weatherlink.com 1.10,2013-05-30 15:49:00,
2013-05-30 12:04:00,75.7,74.0,30.03,ESE,119,6.0,-999.0,94,-99.99,,,1.05,373,weatherlink.com 1.10,2013-05-30 16:04:00,
2013-05-30 12:19:00,76.1,74.0,30.03,ESE,103,5.0,-999.0,93,-99.99,,,1.05,396,weatherlink.com 1.10,2013-05-30 16:19:00,
2013-05-30 12:34:00,77.0,75.0,30.03,ESE,103,4.0,-999.0,92,-99.99,,,1.05,417,weatherlink.com 1.10,2013-05-30 16:34:00,
2013-05-30 12:49:00,78.1,75.0,30.02,ESE,120,6.0,-999.0,91,-99.99,,,1.05,462,weatherlink.com 1.10,2013-05-30 16:49:00,
2013-05-30 13:04:00,78.4,75.0,30.01,East,101,6.0,-999.0,90,-99.99,,,1.05,429,weatherlink.com 1.10,2013-05-30 17:04:00,
2013-05-30 13:19:00,78.6,76.0,30.02,ESE,102,1.0,-999.0,90,-99.99,,,1.05,381,weatherlink.com 1.10,2013-05-30 17:19:00,
2013-05-30 13:34:00,79.0,76.0,30.02,ESE,108,6.0,-999.0,89,-99.99,,,1.05,432,weatherlink.com 1.10,2013-05-30 17:34:00,
2013-05-30 13:50:00,79.5,76.0,30.01,ESE,105,7.0,-999.0,88,-99.99,,,1.05,454,weatherlink.com 1.10,2013-05-30 17:50:00,
2013-05-30 14:05:00,80.4,76.0,30.01,ESE,115,4.0,-999.0,86,-99.99,,,1.05,1234,weatherlink.com 1.10,2013-05-30 18:05:00,
2013-05-30 14:20:00,79.9,75.0,30.01,SE,124,5.0,-999.0,85,-99.99,,,1.05,318,weatherlink.com 1.10,2013-05-30 18:20:00,
2013-05-30 14:35:00,79.2,75.0,30.00,East,101,7.0,-999.0,87,-99.99,,,1.05,754,weatherlink.com 1.10,2013-05-30 18:35:00,
2013-05-30 14:50:00,80.7,76.0,30.00,East,97,7.0,-999.0,85,-99.99,,,1.05,1069,weatherlink.com 1.10,2013-05-30 18:50:00,
2013-05-30 15:05:00,81.2,76.0,29.99,ESE,117,8.0,-999.0,84,-99.99,,,1.05,914,weatherlink.com 1.10,2013-05-30 19:05:00,
2013-05-30 15:20:00,81.0,76.0,29.98,ESE,116,12.0,-999.0,84,-99.99,,,1.05,986,weatherlink.com 1.10,2013-05-30 19:20:00,
2013-05-30 15:35:00,80.5,76.0,29.98,ESE,115,5.0,-999.0,85,-99.99,,,1.05,431,weatherlink.com 1.10,2013-05-30 19:35:00,
2013-05-30 15:50:00,80.0,76.0,29.98,SE,128,4.0,-999.0,86,-99.99,,,1.05,320,weatherlink.com 1.10,2013-05-30 19:50:00,
2013-05-30 16:05:00,79.3,75.0,29.98,ESE,117,5.0,-999.0,86,-99.99,,,1.05,339,weatherlink.com 1.10,2013-05-30 20:05:00,
2013-05-30 16:20:00,80.0,76.0,29.98,ESE,115,6.0,-999.0,86,-99.99,,,1.05,763,weatherlink.com 1.10,2013-05-30 20:20:00,
2013-05-30 16:35:00,80.5,75.0,29.98,East,96,5.0,-999.0,84,-99.99,,,1.05,540,weatherlink.com 1.10,2013-05-30 20:35:00,
2013-05-30 16:50:00,81.3,77.0,29.97,SE,128,4.0,-999.0,85,-99.99,,,1.05,896,weatherlink.com 1.10,2013-05-30 20:50:00,
2013-05-30 17:05:00,81.2,76.0,29.97,ESE,122,6.0,-999.0,83,-99.99,,,1.05,325,weatherlink.com 1.10,2013-05-30 21:05:00,
2013-05-30 17:20:00,80.7,75.0,29.96,SE,132,6.0,-999.0,83,-99.99,,,1.05,214,weatherlink.com 1.10,2013-05-30 21:20:00,
2013-05-30 17:35:00,80.1,75.0,29.96,ESE,117,11.0,-999.0,83,-99.99,,,1.05,255,weatherlink.com 1.10,2013-05-30 21:35:00,
2013-05-30 17:50:00,80.3,75.0,29.97,East,97,4.0,-999.0,84,-99.99,,,1.05,309,weatherlink.com 1.10,2013-05-30 21:50:00,
2013-05-30 18:05:00,79.4,74.0,29.97,ESE,102,11.0,-999.0,83,-99.99,,,1.05,236,weatherlink.com 1.10,2013-05-30 22:05:00,
2013-05-30 18:20:00,79.2,74.0,29.97,East,101,5.0,-999.0,85,-99.99,,,1.05,97,weatherlink.com 1.10,2013-05-30 22:20:00,
2013-05-30 18:35:00,78.9,74.0,29.97,ESE,109,8.0,-999.0,86,-99.99,,,1.05,47,weatherlink.com 1.10,2013-05-30 22:35:00,
2013-05-30 18:50:00,77.6,74.0,29.97,East,82,17.0,-999.0,88,-99.99,,,1.05,28,weatherlink.com 1.10,2013-05-30 22:50:00,
2013-05-30 19:05:00,77.4,74.0,29.98,East,94,6.0,-999.0,89,-99.99,,,1.05,54,weatherlink.com 1.10,2013-05-30 23:05:00,
2013-05-30 19:20:00,77.1,74.0,29.98,East,94,18.0,-999.0,90,-99.99,,,1.05,37,weatherlink.com 1.10,2013-05-30 23:20:00,
2013-05-30 19:35:00,76.9,74.0,29.98,ENE,72,12.0,-999.0,91,-99.99,,,1.05,14,weatherlink.com 1.10,2013-05-30 23:35:00,
2013-05-30 19:50:00,76.5,74.0,29.99,East,85,11.0,-999.0,90,-99.99,,,1.05,9,weatherlink.com 1.10,2013-05-30 23:50:00,
2013-05-30 20:05:00,77.0,74.0,29.99,East,81,10.0,-999.0,91,-99.99,,,1.05,0,weatherlink.com 1.10,2013-05-31 00:05:00,
2013-05-30 20:20:00,77.2,74.0,30.00,ESE,119,15.0,-999.0,90,-99.99,,,1.05,0,weatherlink.com 1.10,2013-05-31 00:20:00,
2013-05-30 20:35:00,77.4,74.0,30.00,ESE,103,7.0,-999.0,90,-99.99,,,1.05,0,weatherlink.com 1.10,2013-05-31 00:35:00,
2013-05-30 20:50:00,77.6,74.0,30.00,East,98,12.0,-999.0,88,-99.99,,,1.05,0,weatherlink.com 1.10,2013-05-31 00:50:00,
2013-05-30 21:05:00,78.0,75.0,30.01,East,100,9.0,-999.0,89,-99.99,,,1.05,0,weatherlink.com 1.10,2013-05-31 01:05:00,
2013-05-30 21:20:00,78.3,75.0,30.01,East,98,11.0,-999.0,88,-99.99,,,1.05,0,weatherlink.com 1.10,2013-05-31 01:20:00,
2013-05-30 21:35:00,78.4,75.0,30.01,East,100,9.0,-999.0,88,-99.99,,,1.05,0,weatherlink.com 1.10,2013-05-31 01:35:00,
2013-05-30 21:50:00,78.5,74.0,30.02,East,86,14.0,-999.0,86,-99.99,,,1.05,0,weatherlink.com 1.10,2013-05-31 01:50:00,
2013-05-30 22:05:00,78.8,74.0,30.02,East,90,7.0,-999.0,86,-99.99,,,1.05,0,weatherlink.com 1.10,2013-05-31 02:05:00,
2013-05-30 22:20:00,78.8,74.0,30.02,ESE,103,12.0,-999.0,86,-99.99,,,1.05,0,weatherlink.com 1.10,2013-05-31 02:20:00,
2013-05-30 22:35:00,78.7,74.0,30.02,East,97,13.0,-999.0,86,-99.99,,,1.05,0,weatherlink.com 1.10,2013-05-31 02:35:00,
2013-05-30 22:50:00,78.7,74.0,30.02,East,97,11.0,-999.0,86,-99.99,,,1.05,0,weatherlink.com 1.10,2013-05-31 02:50:00,
2013-05-30 23:05:00,78.7,74.0,30.03,East,96,15.0,-999.0,86,-99.99,,,1.05,0,weatherlink.com 1.10,2013-05-31 03:05:00,
2013-05-30 23:20:00,78.7,74.0,30.03,East,100,14.0,-999.0,86,-99.99,,,1.05,0,weatherlink.com 1.10,2013-05-31 03:20:00,
2013-05-30 23:35:00,78.7,74.0,30.03,ESE,104,8.0,-999.0,86,-99.99,,,1.05,0,weatherlink.com 1.10,2013-05-31 03:35:00,
2013-05-30 23:50:00,78.6,75.0,30.03,East,101,16.0,-999.0,87,-99.99,,,1.05,0,weatherlink.com 1.10,2013-05-31 03:50:00,